| time (UTC) | temp F | wind direction | speed MPH | gust MPH | rain 1hr in | rain 24hr in | rain mn in | humidity % | barometer mb |
| 20260901034515 | 75 | 0.0 | 0.0 | 0.00 | 0.00 | 0.00 | 76 | ||
| 20260901033516 | 75 | 0.0 | 0.0 | 0.00 | 0.00 | 0.00 | 75 | ||
| 20260901032515 | 76 | 0.0 | 0.0 | 0.00 | 0.00 | 0.00 | 75 | ||
| 20260901031536 | 76 | 0.0 | 0.0 | 0.00 | 0.00 | 0.00 | 74 | ||
| 20260901030515 | 76 | 0.0 | 0.0 | 0.00 | 0.00 | 0.00 | 73 | ||
| 20260901025515 | 77 | 0.0 | 0.0 | 0.00 | 0.00 | 0.00 | 72 | ||
| 20260901024536 | 77 | 0.0 | 1.0 | 0.00 | 0.00 | 0.00 | 71 | ||
| 20260901023517 | 78 | 0.0 | 1.0 | 0.00 | 0.00 | 0.00 | 68 | ||
| 20260901022537 | 79 | 0.0 | 0.0 | 0.00 | 0.00 | 0.00 | 68 | ||
| 20260901021517 | 79 | 0.0 | 0.0 | 0.00 | 0.00 | 0.00 | 67 | ||
| 20260901020517 | 80 | 0.0 | 0.0 | 0.00 | 0.00 | 0.00 | 65 | ||
| 20260901015538 | 80 | 0.0 | 0.0 | 0.00 | 0.00 | 0.00 | 64 | ||
| 20260901014517 | 81 | 0.0 | 1.0 | 0.00 | 0.00 | 0.00 | 63 | ||
| 20260901013517 | 82 | 68 | 1.0 | 2.0 | 0.00 | 0.00 | 0.00 | 61 | |
| 20260901012518 | 82 | 0.0 | 1.0 | 0.00 | 0.00 | 0.00 | 60 | ||
| 20260901011517 | 83 | 68 | 1.0 | 2.0 | 0.00 | 0.00 | 0.00 | 60 | |
| 20260901010517 | 84 | 0.0 | 3.0 | 0.00 | 0.00 | 0.00 | 58 | ||
| 20260901005517 | 84 | 68 | 1.0 | 4.0 | 0.00 | 0.00 | 0.00 | 56 | |
| 20260901004517 | 85 | 68 | 1.0 | 3.0 | 0.00 | 0.00 | 0.00 | 54 | |
| 20260901003517 | 86 | 68 | 1.0 | 3.0 | 0.00 | 0.00 | 0.00 | 50 | |
| 20260901002516 | 86 | 0.0 | 1.0 | 0.00 | 0.00 | 0.00 | 49 | ||
| 20260901001517 | 87 | 68 | 1.0 | 3.0 | 0.00 | 0.00 | 0.00 | 49 | |
| 20260901000517 | 88 | 68 | 1.0 | 4.0 | 0.00 | 0.00 | 0.00 | 48 | |
| 20260831235517 | 89 | 23 | 1.0 | 3.0 | 0.00 | 0.00 | 0.00 | 47 | |
| 20260831234517 | 89 | 293 | 1.0 | 3.0 | 0.00 | 0.00 | 0.00 | 46 | |
| 20260831233516 | 90 | 113 | 1.0 | 3.0 | 0.00 | 0.00 | 0.00 | 46 | |
| 20260831232517 | 90 | 135 | 1.0 | 4.0 | 0.00 | 0.00 | 0.00 | 45 | |
| 20260831231516 | 91 | 68 | 2.0 | 6.0 | 0.00 | 0.00 | 0.00 | 44 | |
| 20260831230517 | 92 | 68 | 2.0 | 6.0 | 0.00 | 0.00 | 0.00 | 44 | |
| 20260831225516 | 92 | 90 | 2.0 | 7.0 | 0.00 | 0.00 | 0.00 | 43 | |
| 20260831224517 | 93 | 68 | 2.0 | 6.0 | 0.00 | 0.00 | 0.00 | 42 | |
| 20260831223517 | 93 | 23 | 2.0 | 6.0 | 0.00 | 0.00 | 0.00 | 40 | |
| 20260831222517 | 94 | 0 | 1.0 | 4.0 | 0.00 | 0.00 | 0.00 | 40 | |
| 20260831221516 | 94 | 90 | 2.0 | 6.0 | 0.00 | 0.00 | 0.00 | 40 | |
| 20260831220517 | 94 | 45 | 2.0 | 3.0 | 0.00 | 0.00 | 0.00 | 41 | |
| 20260831215516 | 94 | 23 | 2.0 | 4.0 | 0.00 | 0.00 | 0.00 | 40 | |
| 20260831214516 | 95 | 90 | 2.0 | 4.0 | 0.00 | 0.00 | 0.00 | 38 | |
| 20260831213517 | 95 | 68 | 2.0 | 6.0 | 0.00 | 0.00 | 0.00 | 37 | |
| 20260831212516 | 95 | 23 | 1.0 | 3.0 | 0.00 | 0.00 | 0.00 | 38 | |
| 20260831211516 | 95 | 135 | 2.0 | 4.0 | 0.00 | 0.00 | 0.00 | 40 | |
| 20260831210537 | 94 | 135 | 2.0 | 4.0 | 0.00 | 0.00 | 0.00 | 40 | |
| 20260831205517 | 94 | 90 | 2.0 | 4.0 | 0.00 | 0.00 | 0.00 | 39 | |
| 20260831204536 | 94 | 90 | 2.0 | 4.0 | 0.00 | 0.00 | 0.00 | 37 | |
| 20260831203516 | 93 | 45 | 2.0 | 5.0 | 0.00 | 0.00 | 0.00 | 43 | |
| 20260831202516 | 93 | 113 | 2.0 | 3.0 | 0.00 | 0.00 | 0.00 | 40 | |
| 20260831201516 | 94 | 113 | 2.0 | 6.0 | 0.00 | 0.00 | 0.00 | 42 | |
| 20260831200517 | 94 | 135 | 2.0 | 4.0 | 0.00 | 0.00 | 0.00 | 39 | |
| 20260831195516 | 94 | 113 | 2.0 | 5.0 | 0.00 | 0.00 | 0.00 | 41 | |
| 20260831194537 | 93 | 45 | 2.0 | 5.0 | 0.00 | 0.00 | 0.00 | 44 | |
| 20260831193516 | 93 | 135 | 2.0 | 4.0 | 0.00 | 0.00 | 0.00 | 41 | |
| 20260831192515 | 92 | 90 | 2.0 | 5.0 | 0.00 | 0.00 | 0.00 | 40 | |
| 20260831191516 | 92 | 135 | 3.0 | 9.0 | 0.00 | 0.00 | 0.00 | 40 | |
| 20260831190515 | 92 | 68 | 2.0 | 5.0 | 0.00 | 0.00 | 0.00 | 44 | |
| 20260831185515 | 91 | 135 | 2.0 | 4.0 | 0.00 | 0.00 | 0.00 | 50 | |
| 20260831184515 | 91 | 113 | 3.0 | 7.0 | 0.00 | 0.00 | 0.00 | 46 | |
| 20260831183518 | 91 | 135 | 3.0 | 7.0 | 0.00 | 0.00 | 0.00 | 50 | |
| 20260831182517 | 90 | 293 | 2.0 | 5.0 | 0.00 | 0.00 | 0.00 | 53 | |
| 20260831181518 | 89 | 90 | 2.0 | 5.0 | 0.00 | 0.00 | 0.00 | 53 | |
| 20260831180538 | 89 | 68 | 2.0 | 4.0 | 0.00 | 0.00 | 0.00 | 61 | |
| 20260831175518 | 88 | 68 | 2.0 | 5.0 | 0.00 | 0.00 | 0.00 | 64 | |
| 20260831174517 | 87 | 68 | 2.0 | 5.0 | 0.00 | 0.00 | 0.00 | 66 | |
| 20260831173537 | 87 | 68 | 1.0 | 4.0 | 0.00 | 0.00 | 0.00 | 68 | |
| 20260831172538 | 86 | 68 | 2.0 | 4.0 | 0.00 | 0.00 | 0.00 | 68 | |
| 20260831171517 | 86 | 90 | 1.0 | 4.0 | 0.00 | 0.00 | 0.00 | 70 | |
| 20260831170517 | 86 | 338 | 2.0 | 4.0 | 0.00 | 0.00 | 0.00 | 70 | |
| 20260831165517 | 85 | 113 | 2.0 | 5.0 | 0.00 | 0.00 | 0.00 | 71 | |
| 20260831164518 | 85 | 68 | 2.0 | 4.0 | 0.00 | 0.00 | 0.00 | 71 | |
| 20260831163517 | 85 | 90 | 2.0 | 4.0 | 0.00 | 0.00 | 0.00 | 73 | |
| 20260831162517 | 84 | 23 | 1.0 | 2.0 | 0.00 | 0.00 | 0.00 | 76 | |
| 20260831161517 | 84 | 113 | 2.0 | 3.0 | 0.00 | 0.00 | 0.00 | 75 | |
| 20260831160557 | 83 | 113 | 1.0 | 3.0 | 0.00 | 0.00 | 0.00 | 76 | |
| 20260831155538 | 83 | 113 | 1.0 | 3.0 | 0.00 | 0.00 | 0.00 | 76 | |
| 20260831154516 | 83 | 68 | 2.0 | 4.0 | 0.00 | 0.00 | 0.00 | 78 | |
| 20260831153517 | 82 | 315 | 1.0 | 3.0 | 0.00 | 0.00 | 0.00 | 80 | |
| 20260831152517 | 81 | 270 | 1.0 | 3.0 | 0.00 | 0.00 | 0.00 | 81 | |
| 20260831151516 | 81 | 135 | 1.0 | 4.0 | 0.00 | 0.00 | 0.00 | 82 | |
| 20260831150517 | 80 | 68 | 2.0 | 5.0 | 0.00 | 0.00 | 0.00 | 83 | |
| 20260831145517 | 79 | 45 | 1.0 | 2.0 | 0.00 | 0.00 | 0.00 | 84 | |
| 20260831144517 | 78 | 338 | 1.0 | 6.0 | 0.00 | 0.00 | 0.00 | 87 | |
| 20260831143517 | 77 | 90 | 1.0 | 4.0 | 0.00 | 0.00 | 0.00 | 89 | |
| 20260831142517 | 77 | 23 | 1.0 | 3.0 | 0.00 | 0.00 | 0.00 | 91 | |
| 20260831141516 | 76 | 45 | 1.0 | 5.0 | 0.00 | 0.00 | 0.00 | 92 | |
| 20260831140517 | 75 | 225 | 1.0 | 3.0 | 0.00 | 0.00 | 0.00 | 93 | |
| 20260831135536 | 74 | 45 | 1.0 | 4.0 | 0.00 | 0.00 | 0.00 | 93 | |
| 20260831134537 | 74 | 0.0 | 2.0 | 0.00 | 0.00 | 0.00 | 93 | ||
| 20260831133517 | 74 | 158 | 1.0 | 3.0 | 0.00 | 0.00 | 0.00 | 93 | |
| 20260831132516 | 73 | 68 | 2.0 | 5.0 | 0.00 | 0.00 | 0.00 | 93 | |
| 20260831131516 | 73 | 90 | 1.0 | 3.0 | 0.00 | 0.00 | 0.00 | 94 | |
| 20260831130516 | 73 | 90 | 1.0 | 4.0 | 0.00 | 0.00 | 0.00 | 93 | |
| 20260831125517 | 72 | 0.0 | 2.0 | 0.00 | 0.00 | 0.00 | 93 | ||
| 20260831124516 | 72 | 0.0 | 0.0 | 0.00 | 0.00 | 0.00 | 93 | ||
| 20260831123517 | 72 | 0.0 | 0.0 | 0.00 | 0.00 | 0.00 | 93 | ||
| 20260831122536 | 72 | 0.0 | 0.0 | 0.00 | 0.00 | 0.00 | 92 | ||
| 20260831121516 | 72 | 0.0 | 0.0 | 0.00 | 0.00 | 0.00 | 92 | ||
| 20260831120516 | 71 | 0.0 | 0.0 | 0.00 | 0.00 | 0.00 | 91 | ||
| 20260831115516 | 71 | 0.0 | 0.0 | 0.00 | 0.00 | 0.00 | 91 | ||
| 20260831114515 | 71 | 0.0 | 0.0 | 0.00 | 0.00 | 0.00 | 91 | ||
| 20260831113515 | 71 | 0.0 | 0.0 | 0.00 | 0.00 | 0.00 | 91 | ||
| 20260831112515 | 72 | 0.0 | 0.0 | 0.00 | 0.00 | 0.00 | 91 | ||
| 20260831111516 | 72 | 0.0 | 0.0 | 0.00 | 0.00 | 0.00 | 91 | ||
| 20260831110516 | 72 | 0.0 | 0.0 | 0.00 | 0.00 | 0.00 | 91 | ||
| 20260831105515 | 72 | 0.0 | 0.0 | 0.00 | 0.00 | 0.00 | 91 | ||
| 20260831104515 | 72 | 0.0 | 0.0 | 0.00 | 0.00 | 0.00 | 91 | ||
| 20260831103516 | 72 | 0.0 | 0.0 | 0.00 | 0.00 | 0.00 | 91 | ||
| 20260831102518 | 72 | 0.0 | 2.0 | 0.00 | 0.00 | 0.00 | 91 | ||
| 20260831101517 | 72 | 0.0 | 0.0 | 0.00 | 0.00 | 0.00 | 90 | ||
| 20260831100517 | 72 | 0.0 | 0.0 | 0.00 | 0.00 | 0.00 | 90 | ||
| 20260831095518 | 73 | 0.0 | 0.0 | 0.00 | 0.00 | 0.00 | 90 | ||
| 20260831094517 | 73 | 0.0 | 0.0 | 0.00 | 0.00 | 0.00 | 90 | ||
| 20260831093538 | 73 | 0.0 | 0.0 | 0.00 | 0.00 | 0.00 | 90 | ||
| 20260831092518 | 73 | 0.0 | 0.0 | 0.00 | 0.00 | 0.00 | 90 | ||
| 20260831091517 | 73 | 0.0 | 0.0 | 0.00 | 0.00 | 0.00 | 90 | ||
| 20260831090517 | 73 | 0.0 | 0.0 | 0.00 | 0.00 | 0.00 | 90 | ||
| 20260831085538 | 74 | 0.0 | 0.0 | 0.00 | 0.00 | 0.00 | 90 | ||
| 20260831084518 | 74 | 0.0 | 1.0 | 0.00 | 0.00 | 0.00 | 89 | ||
| 20260831083517 | 74 | 0.0 | 0.0 | 0.00 | 0.00 | 0.00 | 89 | ||
| 20260831082518 | 74 | 0.0 | 0.0 | 0.00 | 0.00 | 0.00 | 89 | ||
| 20260831081518 | 74 | 0.0 | 2.0 | 0.00 | 0.00 | 0.00 | 89 | ||
| 20260831080517 | 74 | 0.0 | 1.0 | 0.00 | 0.00 | 0.00 | 89 | ||
| 20260831075517 | 74 | 0.0 | 3.0 | 0.00 | 0.00 | 0.00 | 89 | ||
| 20260831074517 | 74 | 0.0 | 2.0 | 0.00 | 0.00 | 0.00 | 88 | ||
| 20260831073538 | 74 | 0.0 | 3.0 | 0.00 | 0.00 | 0.00 | 88 | ||
| 20260831072517 | 74 | 248 | 1.0 | 2.0 | 0.00 | 0.00 | 0.00 | 88 | |
| 20260831071517 | 74 | 0.0 | 1.0 | 0.00 | 0.00 | 0.00 | 88 | ||
| 20260831070516 | 74 | 0.0 | 1.0 | 0.00 | 0.00 | 0.00 | 87 | ||
| 20260831065517 | 74 | 0.0 | 0.0 | 0.00 | 0.00 | 0.00 | 87 | ||
| 20260831064517 | 74 | 0.0 | 3.0 | 0.00 | 0.00 | 0.00 | 87 | ||
| 20260831063516 | 74 | 0.0 | 3.0 | 0.00 | 0.00 | 0.00 | 87 | ||
| 20260831062516 | 74 | 270 | 1.0 | 3.0 | 0.00 | 0.00 | 0.00 | 87 | |
| 20260831061516 | 74 | 0.0 | 0.0 | 0.00 | 0.00 | 0.00 | 86 | ||
| 20260831060517 | 74 | 0.0 | 1.0 | 0.00 | 0.00 | 0.00 | 86 | ||
| 20260831055516 | 74 | 0.0 | 2.0 | 0.00 | 0.00 | 0.00 | 85 | ||
| 20260831054517 | 75 | 0.0 | 1.0 | 0.00 | 0.00 | 0.00 | 85 | ||
| 20260831053536 | 75 | 0.0 | 2.0 | 0.00 | 0.00 | 0.00 | 85 | ||
| 20260831052517 | 75 | 0.0 | 0.0 | 0.00 | 0.00 | 0.00 | 85 | ||
| 20260831051516 | 75 | 0.0 | 2.0 | 0.00 | 0.00 | 0.00 | 84 | ||
| 20260831050516 | 75 | 0.0 | 1.0 | 0.00 | 0.00 | 0.00 | 84 | ||
| 20260831045515 | 75 | 0.0 | 0.0 | 0.00 | 0.00 | 0.00 | 83 | ||
| 20260831044515 | 76 | 0.0 | 2.0 | 0.00 | 0.00 | 0.00 | 83 | ||
| 20260831043515 | 76 | 0.0 | 1.0 | 0.00 | 0.00 | 0.00 | 83 | ||
| 20260831042516 | 76 | 270 | 1.0 | 3.0 | 0.00 | 0.00 | 0.00 | 83 | |
| 20260831041517 | 76 | 0.0 | 2.0 | 0.00 | 0.00 | 0.00 | 83 | ||
| 20260831040538 | 76 | 225 | 1.0 | 2.0 | 0.00 | 0.00 | 0.00 | 82 | |
| 20260831035538 | 76 | 225 | 1.0 | 3.0 | 0.00 | 0.00 | 0.00 | 82 |